CAPE
682 401 78 0 1 35 24 49 72 68 41 2 0 0 0 0 0 0 0 0 0 0 0 1 0 0 34 60 12 0 0 0 0 2 1 1 1 0 1 0 0 1 2
632 366 0 0 0 0 3 14 8 0 0 0 0 0 0 0 0 0 0 0 0 0 0 0 0 0 0 0 0 0 0 0 0 0 2 2 1 1 1 1 0 0 1
476 165 0 0 3 0 0 0 0 0 0 0 0 0 0 0 0 0 0 0 0 0 0 0 0 0 0 0 0 0 0 0 0 0 2 2 2 1 1 0 0 0 1
347 78 0 0 86 22 0 0 0 0 0 0 0 0 0 0 0 0 0 0 0 0 0 0 0 0 0 0 0 0 0 0 1 0 2 3 3 2 1 0 0 0 0
215 116 133 120 111 0 0 0 0 0 0 0 0 0 0 0 0 0 0 0 0 0 0 0 0 0 0 0 0 0 1 1 2 2 2 3 2 2 0 0 0 0 0
178 107 90 157 114 40 10 0 0 0 0 0 0 0 0 0 0 0 0 0 0 0 0 0 0 0 0 0 0 0 1 0 0 0 0 0 2 1 0 0 0 0 0
159 27 192 278 201 108 35 0 0 0 0 1 0 0 0 0 0 0 0 0 0 0 0 0 0 0 0 0 0 0 0 0 0 0 0 0 0 0 0 0 0 0 0
12 110 339 374 260 213 156 101 36 22 0 0 0 0 0 0 0 0 0 0 0 0 0 0 0 0 0 0 0 0 0 0 0 0 0 0 0 0 0 0 0 0 0
35 210 472 498 348 322 332 264 120 97 73 39 0 0 0 0 0 0 0 0 0 0 0 0 0 0 0 0 0 0 0 0 0 0 0 0 0 0 0 0 0 0 2
120 202 491 547 564 441 372 305 245 191 179 115 5 0 0 0 0 0 0 0 0 0 0 0 0 0 0 0 0 0 0 0 0 0 0 0 0 0 0 0 0 3 0
250 213 503 644 661 593 384 283 319 316 252 176 56 3 0 0 0 0 0 0 0 0 0 0 0 0 0 0 0 0 0 0 0 0 0 0 0 0 0 0 0 0 0
224 326 691 678 653 576 394 308 313 256 218 114 96 92 15 0 0 0 0 0 0 0 0 0 0 0 0 0 0 0 0 0 0 0 0 0 0 0 0 0 0 0 0
269 324 538 832 692 607 477 378 349 269 228 178 160 183 84 0 0 0 0 0 0 0 0 0 0 0 0 0 0 0 0 0 0 0 0 0 0 0 0 0 0 0 0
674 701 553 552 615 377 414 555 644 589 548 510 380 330 178 73 3 0 0 0 0 0 0 0 0 0 0 0 0 0 0 0 0 0 0 0 0 0 0 0 0 0 0
654 492 444 350 419 378 389 442 584 249 351 527 459 288 263 216 137 0 0 0 0 0 0 0 0 0 0 0 0 0 0 0 0 0 0 0 0 0 0 0 0 0 0
447 418 391 295 267 274 235 71 0 26 0 0 0 0 0 0 0 0 0 0 0 0 0 0 0 0 0 0 0 0 0 0 0 0 0 0 0 0 0 0 0 0 0
78 44 62 42 13 0 0 8 12 0 0 0 0 0 0 0 0 0 0 0 0 0 0 0 0 0 0 0 0 0 0 0 0 0 0 0 0 0 0 0 0 0 0
0 0 0 0 4 0 0 0 0 0 0 0 0 0 0 0 0 0 0 1 1 1 1 0 0 0 0 0 0 0 0 0 0 0 0 0 0 0 0 0 0 0 0
0 0 0 0 0 0 0 0 0 0 0 0 0 0 0 0 0 0 0 1 1 1 2 0 0 0 0 0 0 0 0 0 0 0 0 0 0 0 0 0 0 0 0
0 0 0 0 0 0 0 0 0 0 2 1 0 0 0 0 0 0 0 0 3 3 1 1 0 0 0 0 0 0 0 0 0 0 0 0 0 0 0 0 0 0 0
12 0 0 0 0 0 0 0 0 0 0 0 0 0 0 0 0 0 0 0 0 1 1 0 0 0 0 0 0 0 0 0 0 0 0 0 0 0 0 0 0 0 0
0 0 0 0 0 0 0 0 0 0 0 0 1 3 2 0 0 3 0 0 0 0 0 0 0 0 0 0 0 0 0 0 0 0 0 0 0 0 0 0 0 0 0
0 4 2 0 0 0 0 0 0 0 0 0 0 0 1 0 0 0 0 0 0 0 0 0 0 0 0 0 0 0 0 0 0 0 0 0 0 0 0 0 0 0 0
0 0 0 0 0 0 9 3 0 0 0 0 0 0 0 0 1 0 0 1 0 0 0 0 0 0 0 0 0 0 0 0 0 0 0 0 0 0 0 0 0 0 0
0 0 0 0 0 0 0 0 0 0 0 0 0 0 0 0 0 0 0 0 0 0 0 0 0 0 0 0 0 0 0 0 0 0 0 0 0 0 0 0 0 0 0
0 2 0 0 0 0 0 0 0 0 0 0 0 1 1 1 1 2 3 2 2 1 0 0 0 0 0 0 0 0 0 0 0 0 0 0 0 0 0 0 0 0 0
CIN
-209 -229 -309 0 -48 -243 -160 -121 -98 -62 -63 -31 0 0 0 0 0 0 0 0 0 0 0 -80 0 0 -132 -99 -165 0 0 0 0 0 0 0 0 0 0 0 0 0 0
-259 -264 0 0 0 0 -127 -126 -96 -3 0 0 0 0 0 0 0 0 0 0 0 0 0 0 0 0 0 -4 0 0 0 0 0 0 0 0 0 0 0 0 0 0 0
-275 -365 0 0 -95 0 0 0 0 0 0 0 0 0 0 0 0 0 0 0 0 0 0 0 0 0 0 0 0 0 0 0 0 0 0 0 0 0 0 0 0 0 0
-308 -410 0 0 -257 -315 0 0 0 0 0 0 0 0 0 0 0 0 0 0 0 0 0 0 0 0 0 0 0 0 0 0 0 0 0 0 0 0 0 0 0 0 0
-343 -370 -352 -304 -247 0 0 0 0 0 0 0 0 0 0 0 0 0 0 0 0 0 0 0 0 0 0 0 0 0 0 0 0 0 0 0 0 0 0 0 0 0 0
-359 -412 -382 -288 -241 -238 -239 0 0 0 0 0 0 0 0 0 0 0 0 0 0 0 0 0 0 0 0 0 0 0 0 0 0 0 0 0 0 0 0 0 0 0 0
-497 -519 -350 -265 -272 -265 -229 -4 0 0 0 -115 0 0 0 0 0 0 0 0 0 0 0 0 0 0 0 0 0 0 0 0 0 0 0 0 0 0 0 0 0 0 0
-596 -415 -300 -241 -235 -245 -230 -181 -180 -186 0 0 0 0 0 0 0 0 0 0 0 0 0 0 0 0 0 0 0 0 0 0 0 0 0 0 0 0 0 0 0 0 0
-469 -332 -241 -208 -211 -200 -185 -169 -147 -144 -138 -149 0 0 0 0 0 0 0 0 0 0 0 0 0 0 0 0 0 0 0 0 0 0 0 0 0 0 0 0 0 -11 -17
-314 -258 -206 -150 -185 -138 -170 -164 -195 -156 -90 -97 -110 0 0 0 0 0 0 0 0 0 0 0 0 0 0 0 0 0 0 0 0 0 0 0 0 0 0 0 -4 -6 0
-284 -230 -184 -130 -130 -129 -122 -178 -174 -163 -130 -97 -141 -22 0 0 0 0 0 0 0 0 0 0 0 0 0 0 0 0 0 0 0 0 0 0 0 0 0 0 0 0 0
-234 -206 -136 -114 -121 -144 -160 -164 -147 -131 -112 -127 -110 -103 -153 0 0 0 0 0 0 0 0 0 0 0 0 0 0 0 0 0 0 0 0 0 0 0 0 0 0 0 0
-226 -220 -127 -80 -93 -121 -138 -143 -125 -134 -132 -102 -89 -80 -115 0 0 0 0 0 0 0 0 0 0 0 0 0 0 0 0 0 0 0 0 0 0 0 0 0 0 0 0
-146 -142 -128 -108 -89 -136 -134 -126 -71 -61 -56 -43 -69 -60 -113 -100 -132 0 0 0 0 0 0 0 0 0 0 0 0 0 0 0 0 0 0 0 0 0 0 0 0 0 0
-155 -175 -152 -133 -147 -150 -152 -128 -68 -185 -146 -51 -60 -84 -54 -79 -90 0 0 0 0 0 0 0 0 0 0 0 0 0 0 0 0 0 0 0 0 0 0 0 0 0 0
-172 -209 -178 -160 -163 -152 -163 -246 0 -86 0 0 0 0 0 0 0 0 0 0 0 0 0 0 0 0 0 0 0 0 0 0 0 0 0 0 0 0 0 0 0 0 0
-232 -283 -208 -206 -265 -10 -4 -328 -293 0 0 0 0 0 0 0 0 0 0 0 0 0 0 0 0 0 0 0 0 0 0 0 0 0 0 0 0 0 0 0 0 0 0
0 0 0 0 -217 0 0 0 0 0 0 0 0 0 0 0 0 0 0 0 0 0 0 0 0 0 0 0 0 0 0 0 0 0 0 0 0 0 0 0 0 0 0
0 0 0 0 0 0 0 0 0 0 0 0 0 0 0 0 0 0 0 0 0 0 0 0 0 0 0 0 0 0 0 0 0 0 0 0 0 0 0 0 0 0 0
0 0 0 0 0 0 0 0 0 0 -23 -30 0 0 0 0 0 0 0 0 0 0 0 0 0 0 0 0 0 0 0 0 0 0 0 0 0 0 0 0 0 0 0
-64 0 0 0 0 0 0 0 0 0 0 0 0 -1 0 0 0 0 0 0 0 0 0 0 0 0 0 0 0 0 0 0 0 0 0 0 0 0 0 0 0 0 0
0 0 0 0 0 0 0 0 0 0 0 0 -64 -86 -140 -4 -37 -119 0 0 0 0 0 0 0 0 0 0 0 0 0 0 0 0 0 0 0 0 0 0 0 0 0
0 -72 -32 0 0 0 0 0 0 0 0 0 0 0 -171 -74 0 0 0 0 0 0 0 0 0 0 0 0 0 0 0 0 0 0 0 0 0 0 0 0 0 0 0
0 0 0 0 0 0 -55 -47 0 0 0 0 0 0 0 0 0 0 0 0 0 0 0 0 0 0 0 0 0 0 0 0 0 0 0 0 0 0 0 0 0 0 0
0 0 0 0 0 0 0 0 0 0 0 0 0 0 0 0 0 0 0 0 0 0 0 0 0 0 0 0 0 0 0 0 0 0 0 0 0 0 0 0 0 0 0
0 -31 0 0 0 0 0 0 0 0 0 0 0 0 -1 0 0 -1 0 0 0 0 0 0 0 0 0 0 0 0 0 0 0 0 0 0 0 0 0 0 0 0 0
Wind_Speed
13 14 16 16 18 20 20 20 19 16 12 10 11 13 13 14 14 15 15 15 15 15 15 14 13 13 11 9 9 8 8 8 9 9 9 11 11 13 13 15 14 14 14
14 15 16 18 18 18 19 18 17 16 15 13 12 13 14 15 15 15 13 14 14 14 14 13 13 12 12 11 10 10 9 8 8 7 7 8 10 11 11 12 13 13 13
14 15 16 17 17 17 17 17 16 14 14 13 12 13 14 15 16 15 14 13 13 14 14 14 13 12 12 11 11 9 8 8 7 6 6 7 8 9 10 11 12 12 13
13 14 14 15 15 16 17 17 16 15 12 11 12 12 13 14 15 15 14 14 14 14 14 15 14 14 12 11 10 9 9 8 7 6 6 6 7 7 8 8 10 11 11
13 12 12 13 14 15 16 16 16 14 13 11 10 11 12 12 14 14 14 14 14 15 15 15 16 15 14 12 11 9 8 8 6 5 5 6 6 5 5 6 9 9 11
11 11 12 13 13 14 14 15 15 15 14 11 10 10 12 12 12 13 13 14 15 15 15 15 15 15 14 13 12 11 10 7 6 5 5 4 4 4 5 5 6 8 10
9 10 10 12 12 13 13 14 14 14 14 13 11 9 11 11 11 10 12 13 14 15 15 16 15 15 14 13 13 12 11 11 8 7 4 4 3 3 4 4 5 8 12
7 9 10 11 11 11 11 11 12 13 12 12 11 9 10 9 9 9 10 12 13 13 15 15 15 14 14 13 13 13 13 12 11 10 7 5 6 4 4 5 5 9 12
6 7 9 9 9 9 9 9 9 10 10 10 9 10 8 9 7 7 9 11 13 14 15 15 14 13 13 12 12 12 12 13 13 10 9 8 7 5 5 6 7 9 12
3 7 5 8 5 11 8 8 8 8 6 6 7 7 7 7 8 6 5 9 10 13 14 15 14 13 11 11 12 11 11 11 9 9 9 10 9 7 7 9 7 8 11
5 5 3 7 5 7 7 4 5 6 5 4 3 3 3 4 5 7 6 5 6 10 13 14 13 10 9 9 9 9 10 8 9 8 9 10 10 10 10 11 10 10 10
14 4 5 8 4 1 4 2 2 3 2 3 3 1 0 1 1 4 4 4 2 6 8 7 7 6 7 9 10 10 8 8 8 8 8 9 10 11 11 12 12 11 11
7 6 4 6 5 5 4 2 4 4 5 4 2 2 3 1 3 3 3 4 5 5 7 6 7 7 8 9 7 8 6 7 8 8 8 9 10 11 11 12 12 13 12
9 2 5 11 4 6 5 6 5 6 7 5 4 3 8 5 4 5 6 8 9 11 13 12 10 9 9 10 11 8 8 7 7 9 10 11 12 12 11 11 12 11 10
12 11 10 8 7 8 9 9 10 13 13 13 14 18 18 15 11 8 5 6 8 10 14 14 13 14 13 12 13 12 9 9 10 10 11 11 11 10 10 10 11 11 10
10 11 11 9 7 8 9 12 14 14 16 18 20 21 24 24 27 21 11 9 9 8 11 11 12 12 12 11 11 12 12 11 12 12 11 10 8 9 9 11 11 11 11
9 10 9 10 11 12 12 14 15 18 21 24 26 26 27 29 31 29 23 12 11 9 13 11 12 11 11 11 10 10 10 10 10 11 11 9 10 11 10 11 12 13 12
8 9 9 11 14 17 17 17 19 23 27 28 26 28 29 31 33 33 27 18 17 14 14 15 13 13 14 14 13 13 12 13 13 13 12 13 13 13 13 13 13 13 12
12 12 13 14 18 19 19 21 23 25 27 29 29 28 27 27 29 29 25 24 20 18 17 16 16 16 16 16 16 15 16 14 15 15 15 15 14 14 14 14 14 13 13
16 15 16 17 19 21 23 25 26 27 29 30 30 28 25 25 25 24 23 22 22 21 19 19 21 19 18 18 19 17 19 18 18 18 18 18 17 16 16 16 15 14 13
17 19 19 20 22 24 25 26 27 28 28 28 29 27 25 25 26 25 25 22 22 21 22 21 21 19 20 20 22 20 20 22 25 22 21 21 21 20 18 17 16 15 14
19 22 22 24 25 26 26 25 25 27 29 30 31 29 26 25 25 26 25 24 22 22 23 23 24 23 22 23 23 24 24 25 26 24 24 24 23 21 20 19 18 17 17
27 27 25 24 25 26 26 25 26 27 28 30 31 31 28 28 27 27 26 25 25 24 23 22 24 25 23 24 26 27 28 27 25 24 25 24 22 21 20 22 21 21 19
30 31 28 24 24 23 25 26 25 25 27 28 28 28 28 27 27 26 26 25 25 25 25 25 26 27 29 28 27 26 26 26 23 23 23 24 24 24 26 26 23 24 24
30 29 28 25 24 23 23 23 23 23 25 26 27 28 28 27 26 27 27 26 25 24 24 25 25 28 30 31 30 29 29 25 22 22 25 27 26 24 25 23 24 23 25
27 26 22 19 17 17 17 18 20 21 22 23 25 25 26 27 27 26 26 25 24 25 26 26 28 30 31 32 32 32 31 31 31 30 30 34 32 33 30 26 23 22 24
Wind_Direction
92 87 78 87 78 75 78 88 80 82 54 352 24 338 354 360 345 343 336 336 333 320 320 320 324 318 346 27 61 69 54 48 60 26 29 21 20 36 37 36 34 34 36
96 88 83 86 83 72 73 79 88 86 84 63 9 352 356 357 351 351 355 350 339 324 312 316 322 334 356 24 57 55 56 27 52 62 33 15 22 28 30 32 26 22 21
98 86 89 89 88 80 78 78 80 75 63 51 24 6 357 354 353 354 352 338 329 319 316 319 327 347 5 21 34 44 34 24 39 59 32 13 14 27 24 18 19 20 22
99 92 93 94 93 83 91 93 82 83 58 39 36 27 10 358 354 359 1 353 339 326 323 327 330 343 356 8 16 21 20 16 32 42 31 22 8 17 16 35 21 13 17
101 96 92 93 88 79 84 87 85 83 79 60 36 23 19 13 359 358 358 356 351 340 333 334 336 344 353 1 11 14 15 14 29 38 23 5 3 25 38 21 12 20 13
110 92 94 91 84 77 82 82 83 89 96 74 61 18 2 8 10 3 354 350 349 347 345 344 346 351 355 359 9 14 16 29 24 14 3 25 9 22 23 49 23 12 357
104 103 99 102 91 85 86 83 83 83 92 104 90 36 1 355 2 10 1 355 348 343 343 342 344 347 354 0 0 359 356 354 0 1 18 11 24 64 50 29 26 1 349
96 111 112 115 103 92 86 89 89 84 90 106 111 53 25 15 13 12 12 355 352 350 346 341 339 342 344 352 360 357 349 347 346 341 354 5 359 50 56 16 25 357 352
122 129 133 126 118 110 100 93 84 81 95 110 105 108 69 30 20 35 24 6 346 348 347 346 342 348 349 352 355 355 350 344 344 355 353 357 3 38 31 7 349 344 338
141 156 136 148 131 157 134 112 74 54 93 99 102 109 89 76 61 85 28 355 3 356 346 339 341 346 348 352 353 352 351 347 354 354 351 352 356 358 357 344 350 340 339
299 172 161 167 169 162 154 112 98 107 79 95 95 101 69 96 120 127 116 45 13 350 346 345 348 357 2 360 358 6 359 1 351 351 349 347 346 346 343 338 341 338 333
289 266 183 181 198 268 175 131 57 48 55 17 4 344 263 330 141 160 162 167 7 345 341 355 12 10 3 350 343 343 356 350 347 344 344 343 343 343 345 346 345 345 341
286 279 260 201 259 194 197 327 344 349 346 332 303 311 328 287 290 272 272 287 300 311 320 329 335 337 339 338 341 342 353 338 334 329 329 328 331 336 339 342 348 351 350
288 232 297 201 257 304 313 326 333 335 336 333 326 317 341 335 317 301 296 297 295 301 308 311 312 318 319 323 324 321 318 315 311 310 311 315 318 321 328 333 336 341 346
289 310 313 313 315 319 326 328 328 333 335 334 333 328 327 327 323 313 272 273 276 293 305 307 300 301 301 304 308 312 309 305 302 302 299 303 306 314 319 325 331 333 331
297 312 325 329 335 332 331 329 333 337 335 332 332 327 320 317 312 317 297 263 261 274 298 290 284 286 283 289 292 300 302 298 301 305 303 299 296 303 309 316 322 326 323
312 329 341 332 331 327 329 331 330 329 327 323 321 322 319 314 309 308 310 294 279 278 285 279 277 270 270 274 279 285 287 288 296 298 298 293 296 301 302 304 306 313 315
336 344 353 345 328 321 326 328 326 322 317 316 323 322 320 316 310 306 308 305 298 290 287 284 275 276 279 274 279 282 284 290 289 289 290 292 293 296 299 298 299 302 305
330 339 338 344 323 320 324 324 322 320 318 317 320 323 325 323 319 314 312 308 302 296 292 289 292 288 285 283 279 281 281 277 283 286 287 288 289 291 294 294 295 292 297
323 329 331 333 325 322 320 320 320 319 317 316 317 320 325 326 323 323 321 315 311 309 304 300 299 296 291 287 287 286 281 281 278 280 284 285 285 284 287 290 289 289 286
330 324 326 326 321 317 318 320 319 318 319 318 318 320 325 323 323 322 320 317 313 310 309 302 303 302 298 294 290 285 288 278 281 279 280 281 284 281 277 279 282 282 283
326 319 319 317 317 316 316 319 318 315 314 315 317 319 321 320 321 321 321 321 319 316 314 310 305 304 301 299 294 288 285 286 283 279 278 282 283 279 272 270 273 276 274
307 310 312 313 314 313 314 316 316 315 315 317 318 320 322 322 323 323 323 321 319 318 319 318 315 312 311 306 301 295 293 290 285 279 275 277 276 275 272 268 269 271 269
303 300 302 307 309 312 312 315 319 322 325 327 329 331 330 329 328 329 328 325 323 322 320 317 316 314 312 311 310 305 299 295 290 284 275 276 278 278 278 274 269 268 270
303 303 303 303 305 309 312 316 323 329 333 335 337 338 338 339 339 337 336 335 331 330 330 329 327 324 320 315 311 308 307 303 296 290 284 278 278 275 277 272 268 267 271
307 309 315 321 323 325 327 329 332 338 341 345 346 346 344 341 341 341 339 339 336 334 331 331 329 324 324 324 321 316 313 309 303 297 289 286 282 282 280 278 270 270 275